Keps
Threads by month
- ----- 2024 -----
- December
- November
- October
- September
- August
- July
- June
- May
- April
- March
- February
- January
- ----- 2023 -----
- December
- November
- October
- September
- August
- July
- June
- May
- April
- March
- February
- January
- ----- 2022 -----
- December
- November
- October
- September
- August
- July
- June
- May
- April
- March
- February
- January
- ----- 2021 -----
- December
- November
- October
- September
- August
- July
- June
- May
- April
- March
- February
- January
- ----- 2020 -----
- December
- November
- October
- September
- August
- July
- June
- May
- April
- March
- February
- January
- ----- 2019 -----
- December
- November
- October
- September
- August
- July
- June
- May
- April
- March
- February
- January
- ----- 2018 -----
- December
- November
- October
- September
- August
- July
- June
- May
- April
- March
- February
- January
- ----- 2017 -----
- December
- November
- October
- September
- August
- July
- June
- May
- April
- March
- February
- January
- ----- 2016 -----
- December
- November
- October
- September
- August
- July
- June
- May
- April
- March
- February
- January
- ----- 2015 -----
- December
- November
- October
- September
- August
- July
- June
- May
- April
- March
- February
- January
- ----- 2014 -----
- December
- November
- October
- September
- August
- July
- June
- May
- April
- March
- February
- January
- ----- 2013 -----
- December
- November
- October
- September
- August
- July
- June
- May
- April
- March
- February
- January
- ----- 2012 -----
- December
- November
- October
- September
- August
- July
- June
- May
- April
- March
- February
- January
- ----- 2011 -----
- December
- November
- October
- September
- August
- July
- June
- May
- April
- March
- February
- January
- ----- 2010 -----
- December
- November
- October
- September
- August
- July
- June
- May
- April
- March
- February
- January
- ----- 2009 -----
- December
- November
- October
- September
- August
- July
- June
- May
- April
- March
- February
- January
- ----- 2008 -----
- December
- November
- October
- September
- August
- July
- June
- May
- April
- March
- February
- January
- ----- 2007 -----
- December
- November
- October
- September
- August
- July
- June
- May
- April
- March
- February
- January
- ----- 2006 -----
- December
- November
- October
- September
December 2007
- 1 participants
- 11 discussions
SB KEPS @ AMSAT $ORB07340.O
Orbital Elements 07340.OSCAR
HR AMSAT ORBITAL ELEMENTS FOR OSCAR SATELLITES
FROM WA5QGD FORT WORTH,TX December 6, 2007
Send Subscribe/unsubscribe to KEPS at
http://www.amsat.org/mailman/listinfo/keps
BID: ORB07340.O
TO ALL RADIO AMATEURS BT
Satellite: PO-63
Catalog number: 29712
Epoch time: 07340.80305040
Element set: 978
Inclination: 097.9030 deg
RA of node: 037.3986 deg
Eccentricity: 0.0013090
Arg of perigee: 291.3278 deg
Mean anomaly: 068.6538 deg
Mean motion: 14.79926443 rev/day
Decay rate: 5.25e-06 rev/day^2
Epoch rev: 4886
Checksum: 330
Satellite: PO-63
Catalog number: 29712
Epoch time: 07340.80305040
Element set: 978
Inclination: 097.9030 deg
RA of node: 037.3986 deg
Eccentricity: 0.0013090
Arg of perigee: 291.3278 deg
Mean anomaly: 068.6538 deg
Mean motion: 14.79926443 rev/day
Decay rate: 5.25e-06 rev/day^2
Epoch rev: 4886
Checksum: 330
Satellite: PO-63
Catalog number: 29712
Epoch time: 07340.80305040
Element set: 978
Inclination: 097.9030 deg
RA of node: 037.3986 deg
Eccentricity: 0.0013090
Arg of perigee: 291.3278 deg
Mean anomaly: 068.6538 deg
Mean motion: 14.79926443 rev/day
Decay rate: 5.25e-06 rev/day^2
Epoch rev: 4886
Checksum: 330
Satellite: VO-52
Catalog number: 28650
Epoch time: 07339.81352247
Element set: 0796
Inclination: 097.8149 deg
RA of node: 046.5208 deg
Eccentricity: 0.0028177
Arg of perigee: 055.9457 deg
Mean anomaly: 304.4442 deg
Mean motion: 14.81389725 rev/day
Decay rate: -8.0e-07 rev/day^2
Epoch rev: 13982
Checksum: 339
Satellite: AO-40
Catalog number: 26609
Epoch time: 07339.52928811
Element set: 0977
Inclination: 007.0899 deg
RA of node: 108.3144 deg
Eccentricity: 0.7931918
Arg of perigee: 029.3281 deg
Mean anomaly: 357.6125 deg
Mean motion: 01.25583743 rev/day
Decay rate: -9.9e-07 rev/day^2
Epoch rev: 03259
Checksum: 341
Satellite: SO-33
Catalog number: 25509
Epoch time: 07339.38181839
Element set: 0079
Inclination: 031.4303 deg
RA of node: 337.8079 deg
Eccentricity: 0.0354885
Arg of perigee: 124.0785 deg
Mean anomaly: 239.4047 deg
Mean motion: 14.28188241 rev/day
Decay rate: 1.51e-06 rev/day^2
Epoch rev: 47574
Checksum: 329
Satellite: FO-29
Catalog number: 24278
Epoch time: 07339.92228057
Element set: 0662
Inclination: 098.5762 deg
RA of node: 276.6821 deg
Eccentricity: 0.0350921
Arg of perigee: 358.5717 deg
Mean anomaly: 001.4390 deg
Mean motion: 13.52935166 rev/day
Decay rate: 2.8e-07 rev/day^2
Epoch rev: 55812
Checksum: 330
Satellite: RS-15
Catalog number: 23439
Epoch time: 07339.77874587
Element set: 0101
Inclination: 064.8139 deg
RA of node: 089.4236 deg
Eccentricity: 0.0154104
Arg of perigee: 159.6126 deg
Mean anomaly: 201.1036 deg
Mean motion: 11.27552839 rev/day
Decay rate: -3.9e-07 rev/day^2
Epoch rev: 53304
Checksum: 307
Satellite: UO-11
Catalog number: 14781
Epoch time: 07340.64118777
Element set: 538
Inclination: 098.1767 deg
RA of node: 006.5476 deg
Eccentricity: 0.0009017
Arg of perigee: 343.7917 deg
Mean anomaly: 016.3032 deg
Mean motion: 14.79598807 rev/day
Decay rate: 5.7e-07 rev/day^2
Epoch rev: 27523
Checksum: 326
Satellite: AO-10
Catalog number: 14129
Epoch time: 07338.04898995
Element set: 449
Inclination: 025.9721 deg
RA of node: 242.7356 deg
Eccentricity: 0.6047754
Arg of perigee: 078.4945 deg
Mean anomaly: 339.9606 deg
Mean motion: 02.05869203 rev/day
Decay rate: 2.6e-07 rev/day^2
Epoch rev: 18406
Checksum: 342
Satellite: AO-07
Catalog number: 07530
Epoch time: 07340.12444734
Element set: 45
Inclination: 101.4932 deg
RA of node: 012.9327 deg
Eccentricity: 0.0011826
Arg of perigee: 281.0795 deg
Mean anomaly: 078.8946 deg
Mean motion: 12.53573003 rev/day
Decay rate: -2.8e-07 rev/day^2
Epoch rev: 51266
Checksum: 281
/EX
SB KEPS @ AMSAT $ORB07340.D
Orbital Elements 07340.MICROS
HR AMSAT ORBITAL ELEMENTS FOR THE MICROSATS
FROM WA5QGD FORT WORTH,TX December 6, 2007
Send Subscribe/unsubscribe to KEPS at
http://www.amsat.org/mailman/listinfo/keps
BID: ORB07340.D
TO ALL RADIO AMATEURS BT
Satellite: LIBERT
Catalog number: 31129
Epoch time: 07340.73891145
Element set: 567
Inclination: 098.0658 deg
RA of node: 047.1380 deg
Eccentricity: 0.0101546
Arg of perigee: 212.5640 deg
Mean anomaly: 146.9230 deg
Mean motion: 14.51981727 rev/day
Decay rate: 3.37e-06 rev/day^2
Epoch rev: 3384
Checksum: 292
Satellite: LIBERT
Catalog number: 31129
Epoch time: 07340.73891145
Element set: 567
Inclination: 098.0658 deg
RA of node: 047.1380 deg
Eccentricity: 0.0101546
Arg of perigee: 212.5640 deg
Mean anomaly: 146.9230 deg
Mean motion: 14.51981727 rev/day
Decay rate: 3.37e-06 rev/day^2
Epoch rev: 3384
Checksum: 292
Satellite: LIBERT
Catalog number: 31129
Epoch time: 07340.73891145
Element set: 567
Inclination: 098.0658 deg
RA of node: 047.1380 deg
Eccentricity: 0.0101546
Arg of perigee: 212.5640 deg
Mean anomaly: 146.9230 deg
Mean motion: 14.51981727 rev/day
Decay rate: 3.37e-06 rev/day^2
Epoch rev: 3384
Checksum: 292
Satellite: CP3
Catalog number: 31128
Epoch time: 07340.20173590
Element set: 198
Inclination: 098.0649 deg
RA of node: 046.5987 deg
Eccentricity: 0.0102500
Arg of perigee: 214.0820 deg
Mean anomaly: 145.3791 deg
Mean motion: 14.51890648 rev/day
Decay rate: -4.8e-07 rev/day^2
Epoch rev: 3378
Checksum: 297
Satellite: CP4
Catalog number: 31122
Epoch time: 07340.72678970
Element set: 203
Inclination: 098.0661 deg
RA of node: 048.2695 deg
Eccentricity: 0.0085392
Arg of perigee: 209.1203 deg
Mean anomaly: 150.5212 deg
Mean motion: 14.55058685 rev/day
Decay rate: 5.49e-06 rev/day^2
Epoch rev: 3394
Checksum: 295
Satellite: NO-61
Catalog number: 29664
Epoch time: 07340.84282790
Element set: 691
Inclination: 051.6223 deg
RA of node: 251.5045 deg
Eccentricity: 0.0001602
Arg of perigee: 323.3216 deg
Mean anomaly: 036.7698 deg
Mean motion: 16.16378908 rev/day
Decay rate: 2.26420e-03 rev/day^2
Epoch rev: 5579
Checksum: 311
Satellite: NO-61
Catalog number: 29664
Epoch time: 07340.84282790
Element set: 691
Inclination: 051.6223 deg
RA of node: 251.5045 deg
Eccentricity: 0.0001602
Arg of perigee: 323.3216 deg
Mean anomaly: 036.7698 deg
Mean motion: 16.16378908 rev/day
Decay rate: 2.26420e-03 rev/day^2
Epoch rev: 5579
Checksum: 311
Satellite: NO-61
Catalog number: 29664
Epoch time: 07340.84282790
Element set: 691
Inclination: 051.6223 deg
RA of node: 251.5045 deg
Eccentricity: 0.0001602
Arg of perigee: 323.3216 deg
Mean anomaly: 036.7698 deg
Mean motion: 16.16378908 rev/day
Decay rate: 2.26420e-03 rev/day^2
Epoch rev: 5579
Checksum: 311
Satellite: HO-59
Catalog number: 29484
Epoch time: 07340.63612453
Element set: 921
Inclination: 098.2641 deg
RA of node: 058.2476 deg
Eccentricity: 0.0155611
Arg of perigee: 001.4824 deg
Mean anomaly: 358.7045 deg
Mean motion: 15.66018450 rev/day
Decay rate: 4.3376e-04 rev/day^2
Epoch rev: 6792
Checksum: 320
Satellite: HO-59
Catalog number: 29484
Epoch time: 07340.63612453
Element set: 921
Inclination: 098.2641 deg
RA of node: 058.2476 deg
Eccentricity: 0.0155611
Arg of perigee: 001.4824 deg
Mean anomaly: 358.7045 deg
Mean motion: 15.66018450 rev/day
Decay rate: 4.3376e-04 rev/day^2
Epoch rev: 6792
Checksum: 320
Satellite: HO-59
Catalog number: 29484
Epoch time: 07340.63612453
Element set: 921
Inclination: 098.2641 deg
RA of node: 058.2476 deg
Eccentricity: 0.0155611
Arg of perigee: 001.4824 deg
Mean anomaly: 358.7045 deg
Mean motion: 15.66018450 rev/day
Decay rate: 4.3376e-04 rev/day^2
Epoch rev: 6792
Checksum: 320
